When you browse on this site, cookies collect data to enhance your experience and personalize the content and advertising you see.
Visit our Privacy Policy to learn more. By continuing to use the site, you agree to this use of cookies and data.
  • In Schweiz
  • Länderverzeichnis
  • Für 7 Tage
  • Wassertemperatur
  • Wetterkarte
  • Widgets
  • user-avatar
    Anmelden

    Stündliche Wetter Genf

    Heute, 21 August, Mittwoch

    Zeit Temperatur Niederschläge Wind Luftdruck Luftfeuchtigkeit
    00:00 +13°C° 0 mm 2 m/S 732 mmHg 95%
    01:00 +13°C° 0 mm 2 m/S 732 mmHg 95%
    02:00 +13°C° 0 mm 2 m/S 732 mmHg 95%
    03:00 +12°C° 0 mm 2 m/S 731 mmHg 95%
    04:00 +13°C° 0 mm 2 m/S 731 mmHg 95%
    05:00 +13°C° 0 mm 2 m/S 731 mmHg 94%
    06:00 +13°C° 0 mm 3 m/S 731 mmHg 94%
    07:00 +16°C° 0 mm 3 m/S 731 mmHg 88%
    08:00 +17°C° 0 mm 3 m/S 731 mmHg 82%
    09:00 +19°C° 0 mm 3 m/S 731 mmHg 75%
    10:00 +20°C° 0 mm 3 m/S 731 mmHg 71%
    11:00 +21°C° 0 mm 4 m/S 731 mmHg 66%
    12:00 +22°C° 0 mm 4 m/S 731 mmHg 62%
    13:00 +23°C° 0 mm 4 m/S 731 mmHg 63%
    14:00 +23°C° 0 mm 4 m/S 730 mmHg 63%
    15:00 +23°C° 0 mm 4 m/S 730 mmHg 64%
    16:00 +22°C° 0 mm 3 m/S 730 mmHg 70%
    17:00 +20°C° 0 mm 3 m/S 730 mmHg 77%
    18:00 +19°C° 0 mm 2 m/S 730 mmHg 84%
    19:00 +18°C° 0 mm 2 m/S 730 mmHg 86%
    20:00 +17°C° 0 mm 2 m/S 730 mmHg 89%
    21:00 +16°C° 0 mm 2 m/S 730 mmHg 92%
    22:00 +16°C° 0 mm 2 m/S 731 mmHg 93%
    23:00 +16°C° 0 mm 1 m/S 731 mmHg 94%

    Morgen, 22 August, Donnerstag

    Zeit Temperatur Niederschläge Wind Luftdruck Luftfeuchtigkeit
    00:00 +15°C° 0 mm 1 m/S 731 mmHg 95%
    01:00 +15°C° 0 mm 1 m/S 730 mmHg 95%
    02:00 +15°C° 0 mm 1 m/S 730 mmHg 95%
    03:00 +15°C° 0 mm 1 m/S 730 mmHg 95%
    04:00 +15°C° 0 mm 1 m/S 730 mmHg 94%
    05:00 +16°C° 0 mm 1 m/S 731 mmHg 93%
    06:00 +16°C° 0 mm 1 m/S 731 mmHg 93%
    07:00 +19°C° 0 mm 1 m/S 731 mmHg 86%
    08:00 +21°C° 0 mm 1 m/S 731 mmHg 80%
    09:00 +22°C° 0 mm 1 m/S 731 mmHg 74%
    10:00 +24°C° 0 mm 1 m/S 731 mmHg 70%
    11:00 +25°C° 0 mm 1 m/S 731 mmHg 65%
    12:00 +27°C° 0 mm 2 m/S 731 mmHg 61%
    13:00 +27°C° 0 mm 2 m/S 731 mmHg 61%
    14:00 +27°C° 0 mm 1 m/S 731 mmHg 62%
    15:00 +27°C° 0 mm 1 m/S 730 mmHg 62%
    16:00 +25°C° 0.1 mm 1 m/S 730 mmHg 70%
    17:00 +24°C° 0.1 mm 1 m/S 730 mmHg 79%
    18:00 +22°C° 0.1 mm 1 m/S 730 mmHg 87%
    19:00 +21°C° 0 mm 1 m/S 731 mmHg 89%
    20:00 +20°C° 0 mm 1 m/S 731 mmHg 91%
    21:00 +19°C° 0 mm 1 m/S 731 mmHg 92%
    22:00 +19°C° 0 mm 1 m/S 731 mmHg 93%
    23:00 +18°C° 0 mm 1 m/S 731 mmHg 93%

    übermorgen, 23 August, Freitag

    Zeit Temperatur Niederschläge Wind Luftdruck Luftfeuchtigkeit
    00:00 +18°C° 0 mm 1 m/S 731 mmHg 94%
    01:00 +16°C° 0 mm 1 m/S 731 mmHg 94%
    02:00 +16°C° 0 mm 1 m/S 730 mmHg 94%
    03:00 +16°C° 0 mm 1 m/S 730 mmHg 94%
    04:00 +18°C° 0 mm 1 m/S 730 mmHg 94%
    05:00 +18°C° 0 mm 1 m/S 730 mmHg 93%
    06:00 +19°C° 0 mm 1 m/S 731 mmHg 92%
    07:00 +21°C° 0 mm 1 m/S 731 mmHg 85%
    08:00 +22°C° 0 mm 1 m/S 731 mmHg 79%
    09:00 +24°C° 0 mm 1 m/S 731 mmHg 72%
    10:00 +25°C° 0 mm 1 m/S 731 mmHg 68%
    11:00 +27°C° 0 mm 1 m/S 730 mmHg 64%
    12:00 +28°C° 0 mm 1 m/S 730 mmHg 59%
    13:00 +28°C° 0.1 mm 1 m/S 730 mmHg 59%
    14:00 +28°C° 0.1 mm 1 m/S 730 mmHg 60%
    15:00 +28°C° 0.1 mm 1 m/S 729 mmHg 60%
    16:00 +27°C° 0.1 mm 1 m/S 729 mmHg 68%
    17:00 +25°C° 0.1 mm 1 m/S 729 mmHg 77%
    18:00 +23°C° 0.1 mm 1 m/S 729 mmHg 85%
    19:00 +22°C° 0 mm 1 m/S 729 mmHg 87%
    20:00 +21°C° 0 mm 1 m/S 729 mmHg 89%
    21:00 +20°C° 0 mm 1 m/S 730 mmHg 91%
    22:00 +20°C° 0 mm 1 m/S 729 mmHg 91%
    23:00 +19°C° 0 mm 1 m/S 729 mmHg 91%

    24 August, Samstag

    Zeit Temperatur Niederschläge Wind Luftdruck Luftfeuchtigkeit
    00:00 +19°C° 0 mm 1 m/S 729 mmHg 91%
    01:00 +19°C° 0 mm 1 m/S 729 mmHg 91%
    02:00 +18°C° 0 mm 1 m/S 729 mmHg 91%
    03:00 +18°C° 0 mm 1 m/S 729 mmHg 91%
    04:00 +19°C° 0 mm 1 m/S 729 mmHg 90%
    05:00 +19°C° 0 mm 1 m/S 729 mmHg 90%
    06:00 +20°C° 0 mm 1 m/S 729 mmHg 89%
    07:00 +22°C° 0 mm 1 m/S 729 mmHg 81%
    08:00 +24°C° 0 mm 1 m/S 729 mmHg 73%
    09:00 +27°C° 0 mm 1 m/S 729 mmHg 64%
    10:00 +28°C° 0 mm 1 m/S 729 mmHg 59%
    11:00 +29°C° 0 mm 1 m/S 729 mmHg 53%
    12:00 +30°C° 0 mm 1 m/S 729 mmHg 47%
    13:00 +30°C° 0 mm 1 m/S 728 mmHg 45%
    14:00 +30°C° 0 mm 1 m/S 728 mmHg 43%
    15:00 +30°C° 0 mm 1 m/S 728 mmHg 42%
    16:00 +28°C° 0 mm 1 m/S 728 mmHg 49%
    17:00 +26°C° 0 mm 1 m/S 728 mmHg 57%
    18:00 +22°C° 0 mm 0 m/S 727 mmHg 65%
    19:00 +23°C° 0 mm 1 m/S 728 mmHg 65%
    20:00 +22°C° 0 mm 1 m/S 728 mmHg 66%
    21:00 +21°C° 0 mm 1 m/S 728 mmHg 66%
    22:00 +20°C° 0 mm 1 m/S 728 mmHg 69%
    23:00 +20°C° 0 mm 1 m/S 728 mmHg 71%

    25 August, Sonntag

    Zeit Temperatur Niederschläge Wind Luftdruck Luftfeuchtigkeit
    00:00 +19°C° 0 mm 1 m/S 728 mmHg 74%
    01:00 +19°C° 0 mm 1 m/S 728 mmHg 75%
    02:00 +19°C° 0 mm 1 m/S 728 mmHg 76%
    03:00 +18°C° 0 mm 1 m/S 728 mmHg 77%
    04:00 +19°C° 0 mm 1 m/S 728 mmHg 76%
    05:00 +19°C° 0 mm 1 m/S 728 mmHg 74%
    06:00 +20°C° 0 mm 1 m/S 728 mmHg 73%
    07:00 +22°C° 0 mm 1 m/S 728 mmHg 65%
    08:00 +23°C° 0 mm 0 m/S 728 mmHg 57%
    09:00 +26°C° 0 mm 0 m/S 729 mmHg 49%
    10:00 +29°C° 0 mm 1 m/S 729 mmHg 46%
    11:00 +30°C° 0 mm 1 m/S 728 mmHg 42%
    12:00 +31°C° 0 mm 1 m/S 728 mmHg 38%
    13:00 +31°C° 0 mm 1 m/S 728 mmHg 38%
    14:00 +31°C° 0 mm 1 m/S 728 mmHg 38%
    15:00 +31°C° 0 mm 1 m/S 728 mmHg 38%
    16:00 +29°C° 0 mm 1 m/S 728 mmHg 46%
    17:00 +26°C° 0 mm 1 m/S 728 mmHg 55%
    18:00 +24°C° 0 mm 1 m/S 728 mmHg 64%
    19:00 +23°C° 0 mm 1 m/S 728 mmHg 62%
    20:00 +22°C° 0 mm 1 m/S 728 mmHg 61%
    21:00 +21°C° 0 mm 1 m/S 729 mmHg 60%
    22:00 +21°C° 0 mm 1 m/S 729 mmHg 61%
    23:00 +21°C° 0 mm 1 m/S 729 mmHg 62%

    26 August, Montag

    Zeit Temperatur Niederschläge Wind Luftdruck Luftfeuchtigkeit
    00:00 +20°C° 0 mm 1 m/S 729 mmHg 63%
    01:00 +20°C° 0 mm 1 m/S 729 mmHg 64%
    02:00 +20°C° 0 mm 1 m/S 729 mmHg 66%
    03:00 +19°C° 0 mm 1 m/S 729 mmHg 67%
    04:00 +20°C° 0 mm 1 m/S 729 mmHg 68%
    05:00 +20°C° 0 mm 1 m/S 729 mmHg 69%
    06:00 +20°C° 0 mm 1 m/S 729 mmHg 71%
    07:00 +23°C° 0 mm 1 m/S 730 mmHg 64%
    08:00 +25°C° 0 mm 1 m/S 730 mmHg 58%
    09:00 +27°C° 0 mm 1 m/S 730 mmHg 52%
    10:00 +28°C° 0 mm 1 m/S 730 mmHg 49%
    11:00 +29°C° 0 mm 2 m/S 730 mmHg 45%
    12:00 +30°C° 0 mm 2 m/S 730 mmHg 42%
    13:00 +30°C° 0 mm 2 m/S 730 mmHg 43%
    14:00 +30°C° 0 mm 2 m/S 730 mmHg 44%
    15:00 +30°C° 0 mm 2 m/S 729 mmHg 45%
    16:00 +28°C° 0 mm 1 m/S 729 mmHg 54%
    17:00 +26°C° 0 mm 1 m/S 729 mmHg 63%
    18:00 +24°C° 0 mm 1 m/S 729 mmHg 73%
    19:00 +23°C° 0 mm 1 m/S 730 mmHg 72%
    20:00 +23°C° 0 mm 1 m/S 730 mmHg 71%
    21:00 +22°C° 0 mm 1 m/S 730 mmHg 70%
    22:00 +22°C° 0 mm 1 m/S 730 mmHg 69%
    23:00 +21°C° 0 mm 1 m/S 730 mmHg 69%
    Mehr zeigen